CW8739 Weather Reports


time (UTC)temp
C
wind
direction
speed
KPH
gust
KPH
rain 1hr
cm
rain 24hr
cm
rain mn
cm
humidity
%
barometer
mb
20260508131831 9 304 0.0 3.2 0.00 8.61 0.00 97 1001.5
20260508130324 9 304 1.6 4.8 0.00 8.61 0.00 97 1001.6
20260508124839 8 304 3.2 6.4 0.00 8.61 0.00 97 1001.7
20260508123352 7 304 0.0 3.2 0.00 8.61 0.00 97 1001.4
20260508121821 7 304 3.2 6.4 0.00 8.61 0.00 97 1001.5
20260508120325 7 304 8.0 12.9 0.00 8.61 0.00 97 1001.7
20260508114834 8 304 1.6 8.0 0.00 8.61 0.00 97 1001.8
20260508113358 7 304 4.8 9.7 0.00 8.61 0.00 97 1001.8
20260508111826 6 304 3.2 8.0 0.00 8.61 0.00 97 1001.8
20260508110333 6 304 1.6 4.8 0.00 8.61 0.00 97 1001.8
20260508104830 5 305 0.0 6.4 0.00 8.61 0.00 97 1001.7
20260508103324 5 304 3.2 8.0 0.00 8.61 0.00 97 1002.0
20260508101844 5 305 4.8 6.4 0.00 8.61 0.00 97 1002.0
20260508100334 5 304 3.2 4.8 0.00 8.61 0.00 97 1001.9
20260508094824 5 304 1.6 8.0 0.00 8.61 0.00 97 1001.9
20260508093328 5 304 1.6 8.0 0.00 8.61 0.00 97 1001.5
20260508091838 5 304 6.4 12.9 0.00 8.61 0.00 97 1001.6
20260508090341 6 306 0.0 3.2 0.00 8.61 0.00 96 1001.2
20260508084830 7 306 0.0 6.4 0.00 8.61 0.00 97 1001.0
20260508083324 7 306 1.6 4.8 0.00 8.61 0.00 97 1001.3
20260508081842 8 306 1.6 8.0 0.00 8.61 0.00 97 1001.2
20260508080353 8 306 0.0 6.4 0.00 8.61 0.00 97 1001.2
20260508074827 8 306 1.6 9.7 0.00 8.61 0.00 97 1001.0
20260508073322 8 306 1.6 6.4 0.00 8.61 0.00 97 1001.1
20260508071841 8 306 1.6 8.0 0.00 8.61 0.00 97 1001.1
20260508070335 8 306 1.6 6.4 0.00 8.61 0.00 97 1001.2
20260508064825 8 306 0.0 0.0 0.00 8.61 0.00 97 1001.3
20260508063348 8 306 0.0 6.4 0.00 8.61 0.00 97 1001.1
20260508061906 8 306 1.6 6.4 0.00 8.61 0.00 97 1001.5
20260508060337 7 306 3.2 8.0 0.00 8.61 0.00 96 1001.1
20260508054824 7 306 0.0 4.8 0.00 8.61 0.00 96 1001.3
20260508053327 8 306 0.0 0.0 0.00 8.61 0.00 96 1001.2
20260508051853 8 306 0.0 1.6 0.00 8.61 0.00 96 1001.3
20260508050336 8 306 0.0 0.0 0.00 8.61 0.00 96 1001.3
20260508044825 8 306 0.0 0.0 0.00 8.61 0.00 97 1001.3
20260508043346 8 306 0.0 0.0 0.00 8.61 0.00 97 1001.2
20260508041835 8 306 0.0 3.2 0.00 8.61 0.00 96 1001.2
20260508040331 8 306 1.6 4.8 0.00 8.61 0.00 96 1001.5
20260508034821 8 306 0.0 1.6 0.00 8.61 0.00 96 1001.7
20260508033345 8 306 3.2 6.4 0.00 8.61 0.00 96 1001.7
20260508031834 8 306 6.4 12.9 0.00 8.61 0.00 96 1001.7
20260508030329 8 299 0.0 3.2 0.00 8.61 0.00 96 1001.9
20260508024844 8 299 1.6 6.4 0.00 8.61 1.73 96 1001.9
20260508023338 8 299 0.0 3.2 0.00 8.61 1.73 96 1001.8
20260508021828 8 299 1.6 8.0 0.00 8.61 1.73 96 1001.7
20260508020322 10 297 0.0 1.6 0.00 8.61 1.73 96 1001.7
20260508014837 9 297 0.0 3.2 0.00 8.61 1.73 95 1001.7
20260508013331 10 297 1.6 6.4 0.00 8.61 1.73 96 1001.9
20260508011829 10 297 0.0 0.0 0.00 8.61 1.73 96 1001.8
20260508010323 10 297 0.0 0.0 0.00 8.61 1.73 95 1001.7
20260508004833 11 297 1.6 8.0 0.10 8.61 1.73 96 1001.4
20260508003353 11 293 4.8 12.9 0.10 8.61 1.73 95 1001.2
20260508001822 11 225 1.6 8.0 0.10 8.61 1.73 95 1001.4
20260508000327 11 225 1.6 8.0 0.10 8.61 1.73 95 1001.4
20260507234833 11 223 1.6 8.0 0.00 8.51 1.70 95 1001.3
20260507233328 11 207 3.2 6.4 0.00 8.51 1.70 95 1001.2
20260507231827 11 201 0.0 9.7 0.00 8.51 1.70 95 1001.1
20260507230322 12 197 6.4 11.3 0.00 8.51 1.70 95 1001.0
20260507224832 12 196 0.0 6.4 0.00 8.51 1.70 95 1001.0
20260507223336 12 197 1.6 4.8 0.00 8.51 1.70 94 1001.0
20260507221825 12 196 1.6 12.9 0.00 8.51 1.70 94 1001.1
20260507220349 12 204 8.0 16.1 0.00 8.51 1.70 94 1001.2
20260507214820 12 200 4.8 17.7 0.00 8.51 1.70 93 1001.0
20260507213332 12 188 9.7 16.1 0.00 8.51 1.70 93 1000.9
20260507211822 13 176 12.9 17.7 0.00 8.51 1.70 93 1000.9
20260507210326 13 182 8.0 17.7 0.00 8.51 1.70 93 1000.7
20260507204833 13 185 12.9 22.5 0.00 8.51 1.70 93 1000.5
20260507203337 13 188 9.7 17.7 0.00 8.51 1.70 95 1000.4
20260507201845 13 236 8.0 12.9 0.20 8.51 1.70 96 1000.7
20260507200347 12 244 6.4 17.7 0.20 8.51 1.70 95 1000.9
20260507194856 12 208 8.0 19.3 0.71 8.51 1.70 95 1000.8
20260507193338 12 173 11.3 16.1 1.30 8.51 1.70 95 1000.1
20260507191826 11 165 12.9 22.5 1.40 8.31 1.65 95 1000.0
20260507190408 12 190 11.3 19.3 1.80 8.31 1.65 95 1001.1
20260507184836 12 179 14.5 25.7 2.01 7.80 1.55 95 1001.5
20260507183328 12 188 11.3 27.4 2.11 7.19 1.45 95 1002.6
20260507181846 12 183 11.3 20.9 2.90 6.81 1.37 95 1002.3
20260507180359 13 184 11.3 30.6 3.81 6.50 1.30 95 1002.7
20260507174837 13 189 8.0 24.1 4.60 5.79 1.17 94 1002.9
20260507173330 13 179 11.3 19.3 5.00 5.11 1.02 94 1002.8
20260507171820 13 219 9.7 25.7 3.81 3.81 0.76 94 1003.5
20260507170343 13 217 14.5 25.7 2.69 2.69 0.53 93 1003.6
20260507164849 13 228 12.9 29.0 1.19 1.19 0.23 93 1003.5
20260507163332 13 180 29.0 46.7 0.10 0.10 0.03 91 1002.7
20260507161841 14 183 20.9 51.5 0.00 0.00 0.00 91 1002.8
20260507160342 14 175 27.4 49.9 0.00 0.00 0.00 90 1002.9
20260507154831 14 164 22.5 41.8 0.00 0.00 0.00 89 1003.4
20260507153355 14 179 25.7 46.7 0.00 0.00 0.00 88 1003.8
20260507151824 14 163 22.5 48.3 0.00 0.00 0.00 88 1004.2
20260507150348 14 168 29.0 46.7 0.00 0.00 0.00 88 1004.1
20260507144836 14 165 29.0 48.3 0.00 0.00 0.00 88 1004.8
20260507143329 13 200 25.7 51.5 0.00 0.00 0.00 88 1005.5
20260507141827 13 175 22.5 48.3 0.00 0.00 0.00 89 1005.3
20260507140342 13 180 25.7 48.3 0.00 0.00 0.00 88 1005.5
20260507134839 13 145 25.7 46.7 0.00 0.00 0.00 86 1005.9
20260507133334 15 179 30.6 57.9 0.00 0.00 0.00 83 1006.1